Погода в Гызыларбате

Погода в Гызыларбате : погода сейчас, прогноз погоды и архив. Всё, что Вы хотите узнать о погоде в Гызыларбате!

Хотите узнать прогноз погоды в Гызыларбате? Тогда Вам сюда: Погода в Гызыларбате

Поиск расширенной информации на нашем сайте:

Другие новости

Новости СМИ2

Главная страница сайта

Новости сайта

03.07.2017

Напоминаем, что на нашем специализированном сайте Метеоцентр.Азия вы можете получить высокодетализированные автоматические прогнозы погоды по пунктам России, СНГ и мира в авиационном формате (включающие направление и скорость ветра, видимость, явления погоды, количество и форму облачности, нижнюю и верхнюю границу облачности).

Рекомендуем: Хохлома - хохломские узоры в векторе.

Погода в Гызыларбате - сегодня

Время (UTC), дата Ветер
(°,м/с) 
Видим.   Явления Облачность Т
(°С)
Тd
(°С)
f(%) Тe
(°С)
Pmin
(гПа)
dP
(гПа)
Po
(мм)
O2
(г/м3)
Тmin Tmax R s Состояние
почвы
12 17.02.18 090 (В) 2000 м  дымка  10/10 300 м 
[St]
+5.7 +5.2 97 +3  1024.9  -1.7  761  299           
15 17.02.18 100 (В) 4000 м  дымка  10/10 400 м 
[St]
+5.8 +4.6 92 +4  1024.5  -0.4  760  299    +5.9       
18 17.02.18 100 (В) 4000 м  дымка  10/10 400 м 
[St]
+5.6 +4.4 92 +4  1024.2  -0.3  760  299    +5.9       
21 17.02.18 100 (В) 4000 м  дымка  10/10 400 м 
[St]
+4.9 +3.7 92 +4  1022.9  -1.4  759  300           
00 18.02.18 080 (В) 10 км    10/10 700 м 
[Sc]
+3.2 +0.6 83 +1  1021.3  -1.7  758  302           
03 18.02.18 090 (В) 10 км    10/10 400 м 
[St]
+2.7 +1.1 89 1020.4  -0.8  757  302  +2.6         
06 18.02.18 090 (В) 10 км    10/10 400 м 
[St]
+3.3 +1.2 86 1020  -0.6  757  301  +2.6         
09 18.02.18 090 (В) 10 км    10/10 400 м 
[St]
+6.4 +3.6 82 +4  1016.7  -3  755  297           
12 18.02.18 100 (В) 10 км    10/10 400 м 
[St]
+8.6 +5 78 +6  1013.4  -3.1  752  293           
15 18.02.18 090 (В) 10 км    10/10 500 м 
[St]
+9.2 +3.8 69 +7  1012.1  -1.3  751  292    +9.4       
18 18.02.18 100 (В) 10 км    9/8 900 м средняя 
[Sc|Ac trans]
+8.8 +1.5 60 +7  1011.6  -0.5  751  293    +9.4       
21 18.02.18 090 (В) 10 км    10/10 400 м 
[St]
+8.7 +3 67 +8  1011  -0.6  750  293           
00 19.02.18 090 (В) 10 км  в посл. час ливневой дождь  10/10 400 м 
[Sc]
+6.1 +4 86 +6  1012.9  1.8  752  296           
03 19.02.18 тихо ()   10 км    10/10 400 м кучево-дожд. 
[Cb cap]
+8 +5.1 82 +8  1015.1  2.3  754  294      0.0     
06 19.02.18 230 (ЮЗ) 20000 м    8/8 500 м 
[Sc]
+10.2 +6.8 79 +9  1015.3  0.2  754  292  +6    0.0     
09 19.02.18 230 (ЮЗ) 10 км    9/9 600 м 
[Sc]
+10.8 +7.4 79 +9  1016.1  0.8  754  291           
12 19.02.18 260 (З) 10 км    10/10 500 м 
[Sc]
+10.2 +8 86 +9  1016.4  0.3  755  292           
15 19.02.18 250 (З) 10 км  {ливн. осадки}  9/8 600 м средняя 
[Cu Sc|Ac trans]
+9.7 +6.1 78 +9  1017.6  1.2  755  293    +11.2  0.0     
18 19.02.18 260 (З) 10 км  {ливн. осадки}  9/9 600 м 
[Cu Sc]
+8 +4.3 77 +7  1018.6  0.9  756  295    +11.2  0.0     
21 19.02.18 260 (З) 10 км    9/9 720 м 
[Cu Sc]
+6.8 +3.2 78 +5  1018.4  -0.3  756  297           
00 20.02.18 260 (З) 10 км    8/8 720 м 
[Cu Sc]
+6 +2.3 77 +4  1019  0.6  756  298           
03 20.02.18 тихо ()   10 км    ясно 
-3.7 -4.7 93 -4  1029.1  -0.1  764  312  -3.7        замёрзшая 
06 20.02.18 250 (З) 20000 м    1/1 600 м 
[Cu med, cong]
+6.1 +0.2 66 +4  1027.8  -0.5  763  301  +0.4    0.9     
09 20.02.18 230 (ЮЗ) 20000 м    8/8 700 м 
[Cu Sc]
+8.4 +3.6 72 +7  1020.9  -0.3  758  296           
12 20.02.18 250 (З) 20000 м    9/9 700 м 
[Cu Sc]
+9 +4.5 73 +7  1020.6  -0.3  758  295           
Время (UTC), дата Ветер
(°,м/с) 
Видим.   Явления Облачность Т
(°С)
Тd
(°С)
f(%) Тe
(°С)
Pmin
(гПа)
dP
(гПа)
Po
(мм)
O2
(г/м3)
Тmin Tmax R s Состояние
почвы

Для получения пояснительной информации подведите курсор к названию столбца.

ПОГОДА в Гызыларбате - архив

Всё, что Вы хотите узнать о погоде в Гызыларбате - удобно и подробно!

Выберите нужную дату (начиная с 1 января 2015* года) и нажмите кнопку "Найти".
Будут отображены архивные сводки погоды по пункту Гызыларбат, начиная с указанной даты.


Отображать данные в формате CSV (для использования в таблицах Excel)


Внимание! Наш архив погоды предназначен исключительно для личного некоммерческого использования в познавательных целях. Если Вам необходимы официальные справки о состоянии погоды (для производственных, юридических, коммерческих и т.п. целей), обращайтесь в органы Росгидромета.

*Примечание: данная дата относится к архиву по метеостанциям СССР (Россия, СНГ, Балтия).
Архив по метеостанциям Зарубежной Европы и Азии (кроме Китая) хранится 10 дней, по другим регионам земного шара (Китай, Африка, Америка, Австралия, Океания) - 1 день.

Гызыларбат - район местоположения метеостанции


Название, широта, долгота, высота метеостанции:
Гызыларбат 39°ш. 56.3°д. 92 м над ур. моря [Туркменистан]

Дополнительная информация

В oтличие oт бoльшинства пoгoдных сайтoв мы публикуем пoдрoбную метеoинфoрмацию в детальнoм прoфессиoнальнoм фoрмате.

Характеристики температуры и влажнoсти вoздуха измеряются на высoте 2 м в тени вдали oт зданий и деревьев.
Скoрoсть ветра измеряется на высoте 10 м (на урoвне рoста челoвека скoрoсть ветра ниже в 1.5-2 раза). Если метеoстанция нахoдится в гoрoде или в лесу, тo скoрoсть ветра занижена на 2-4 м/с пo сравнению с oткрытым местoм. Скoрoсть ветра над акватoриями крупных рек и oзёр, а также на вершинах хoлмoв на 2-5 м/с выше, чем в oбычных услoвиях.
Атмoсфернoе давление в разных тoчках местнoсти мoжет значительнo oтличаться oт давления на метеoстанции, в зависимoсти oт услoвий рельефа (при пoдъёме на 10 м давление пoнижается примернo на 1 мм рт.ст.).